Erie, PA

7:57 PM EST on December 05, 2019 (GMT -0500)
Erie International

Weather History for KERI - October, 2019

Change the Weather History Date:

Tuesday, October 15, 2019

  Actual Average Record
Temperature  
Mean Temperature 54 °F 53 °F  
Max Temperature 66 °F 61 °F 82 °F (1962)
Min Temperature 41 °F 45 °F 28 °F (1876)
Degree Days  
Heating Degree Days 12 12  
Month to date heating degree days 149  
Since 1 July heating degree days 273  
Cooling Degree Days 0 0  
Month to date cooling degree days 7  
Year to date cooling degree days 636  
Growing Degree Days 4 (Base 50)    
Moisture  
Dew Point 39 °F    
Average Humidity 61    
Maximum Humidity 82    
Minimum Humidity 36    
Precipitation  
Precipitation 0.00 in 0.12 in 4.35 in (1954)
Month to date precipitation 2.11  
Year to date precipitation 32.55  
Snow  
Snow - 0.00 in - ()
Month to date snowfall 0.0  
Since 1 July snowfall 0.0  
Since 1 September snowfall 0.0  
Snow Depth -    
Sea Level Pressure  
Sea Level Pressure 30.02 in    
Wind  
Wind Speed 7 mph ()    
Max Wind Speed 16 mph    
Max Gust Speed 23 mph    
Visibility 10.0 miles    
Events      
T = Trace of Precipitation, MM = Missing Value Source: Averaged Metar Reports

Daily Weather History Graph

Daily Weather History Graph

Search for Another Location

Airport or City:

Astronomy

Oct. 15, 2019 Rise Set
Actual Time 7:33 AM EDT 6:39 PM EDT
Civil Twilight 7:04 AM EDT 7:07 PM EDT
Nautical Twilight 6:32 AM EDT 7:39 PM EDT
Astronomical Twilight 6:00 AM EDT 8:12 PM EDT
Moon 7:57 PM EDT (10/15) 9:02 AM EDT (10/15)
Length of Visible Light 12h 02m
Length of Day
11h 06m
Full, 97% of the Moon is Illuminated
Oct 15
Full
Oct 21
Last Quarter
Oct 27
New
Nov 4
First Quarter
Nov 12
Full

Hourly Weather History & Observations

Time (EDT) Temp. Windchill Dew Point Humidity Pressure Visibility Wind Dir Wind Speed Gust Speed Precip Events Conditions
12:51 AM 48.0 °F - 39.0 °F 71% 30.13 in 10.0 mi South 6.9 mph - N/A   Overcast
1:51 AM 46.0 °F 43.9 °F 39.0 °F 76% 30.14 in 10.0 mi South 4.6 mph - N/A   Overcast
2:51 AM 44.1 °F 40.8 °F 37.9 °F 79% 30.14 in 10.0 mi South 5.8 mph - N/A   Mostly Cloudy
3:51 AM 42.1 °F 38.4 °F 37.0 °F 82% 30.14 in 10.0 mi South 5.8 mph - N/A   Clear
4:51 AM 41.0 °F 37.1 °F 36.0 °F 82% 30.14 in 10.0 mi South 5.8 mph - N/A   Clear
5:51 AM 41.0 °F 36.4 °F 36.0 °F 82% 30.15 in 10.0 mi South 6.9 mph - N/A   Clear
6:51 AM 41.0 °F 35.8 °F 36.0 °F 82% 30.15 in 10.0 mi South 8.1 mph - N/A   Clear
8:51 AM 45.0 °F 39.3 °F 37.0 °F 74% 30.15 in 10.0 mi South 11.5 mph - N/A   Clear
9:51 AM 50.0 °F - 39.0 °F 66% 30.15 in 10.0 mi South 11.5 mph - N/A   Clear
10:51 AM 55.0 °F - 39.9 °F 57% 30.13 in 10.0 mi SSE 11.5 mph - N/A   Clear
11:51 AM 57.9 °F - 41.0 °F 53% 30.09 in 10.0 mi SSE 10.4 mph - N/A   Clear
12:51 PM 61.0 °F - 37.9 °F 42% 30.06 in 10.0 mi South 12.7 mph 19.6 mph N/A   Clear
1:51 PM 63.0 °F - 37.9 °F 40% 30.02 in 10.0 mi SSE 8.1 mph - N/A   Clear
2:51 PM 64.9 °F - 37.9 °F 37% 29.98 in 10.0 mi South 10.4 mph - N/A   Clear
3:51 PM 66.9 °F - 39.0 °F 36% 29.94 in 10.0 mi SSE 12.7 mph - N/A   Clear
4:51 PM 66.9 °F - 39.0 °F 36% 29.92 in 10.0 mi South 10.4 mph - N/A   Clear
5:51 PM 64.9 °F - 39.9 °F 40% 29.90 in 10.0 mi SSE 5.8 mph - N/A   Clear
6:51 PM 61.0 °F - 39.9 °F 46% 29.90 in 10.0 mi SSE 3.5 mph - N/A   Clear
7:51 PM 55.0 °F - 42.1 °F 62% 29.90 in 10.0 mi Calm Calm - N/A   Partly Cloudy
8:51 PM 51.1 °F - 42.1 °F 71% 29.88 in 10.0 mi East 3.5 mph - N/A   Partly Cloudy
9:51 PM 51.1 °F - 42.1 °F 71% 29.85 in 10.0 mi SE 5.8 mph - N/A   Clear
10:51 PM 57.0 °F - 42.1 °F 57% 29.81 in 10.0 mi SSE 11.5 mph - N/A   Clear
11:51 PM 59.0 °F - 41.0 °F 51% 29.77 in 10.0 mi SSE 16.1 mph 23.0 mph N/A   Overcast